This demonstration page uses our WeatherBlox Daily Observations layout. Learn more.

39.01783, -85.05884

Hourly Observations for January 13, 2019

Temp ( °F °C ) Dew Point ( °F °C ) Humidity (%) Winds ( mph kmh ) Pressure ( in mb ) Visibility ( mi km ) Precip ( " mm )
12:52 am 00:52 Cloudy with Mist and Fog 34 1.1 31 -0.6 89 89 NE 13 20 30.12 1020 1.5 2.414016 0.001 0.001
1:05 am 01:05 Cloudy with Light Rain 34 1.1 31 -0.6 89 89 NE 12 19 30.18 1022 1.5 2.414016 0.001 0.001
1:52 am 01:52 Cloudy with Freezing Rain 33 0.6 31 -0.6 92 92 NE 10 17 30.12 1020 1.5 2.414016 0.03 0.762
1:55 am 01:55 Cloudy with Light Freezing Rain 33 0.6 31 -0.6 92 92 NE 10 17 30.18 1022 2.5 4.02336 0.01 0.254
2:10 am 02:10 Cloudy with Freezing Rain 33 0.6 31 -0.6 92 92 NE 14 22 30.18 1022 2.5 4.02336 0.03 0.762
2:17 am 02:17 Cloudy with Light Snow 33 0.6 31 -0.6 92 92 NE 12 19 30.18 1022 2.5 4.02336 0.05 1.27
2:52 am 02:52 Cloudy with Light Snow 32 0 30 -1.1 92 92 NNE 13 20 30.12 1020 2.5 4.02336 0.11 2.794
3:16 am 03:16 Cloudy with Light Snow 32 0 30 -1.1 92 92 NE 12 19 30.18 1022 1 1.609344 0.06 1.524
3:52 am 03:52 Cloudy with Light Snow 32 0 30 -1.1 92 92 NNE 15 24 30.12 1020 1 1.609344 0.19 4.826
4:52 am 04:52 Cloudy with Light Snow 31 -0.6 29 -1.7 92 92 NE 14 22 30.12 1020 1 1.609344 0.1 2.54
4:59 am 04:59 Cloudy with Light Snow 32 0 29 -1.7 88 88 NE 16 26 30.18 1022 0.5 0.804672 0.01 0.254
5:52 am 05:52 Cloudy with Light Snow 31 -0.6 28 -2.2 89 89 NNE 13 20 30.12 1020 0.5 0.804672 0.12 3.048
6:52 am 06:52 Cloudy with Light Snow 30 -1.1 27 -2.8 88 88 NE 15 24 30.12 1020 0.5 0.804672 0.01 0.254
7:52 am 07:52 Cloudy with Light Snow 30 -1.1 27 -2.8 88 88 NE 14 22 30.12 1020 0.5 0.804672 0.02 0.508
8:08 am 08:08 Cloudy with Light Snow 30 -1.1 27 -2.8 88 88 NE 16 26 30.18 1022 1.5 2.414016 0.01 0.254
8:52 am 08:52 Cloudy with Light Snow 30 -1.1 27 -2.8 88 88 NE 15 24 30.15 1021 1.5 2.414016 0.01 0.254
9:52 am 09:52 Cloudy with Light Snow 30 -1.1 27 -2.8 88 88 NNE 16 26 30.18 1022 1.5 2.414016 0.001 0.001
10:52 am 10:52 Cloudy with Light Snow 31 -0.6 27 -2.8 85 85 NNE 14 22 30.18 1022 2 3.218688 0.001 0.001
11:12 am 11:12 Cloudy with Mist and Fog 31 -0.6 27 -2.8 85 85 NNE 14 22 30.24 1024 3 4.828032 0.001 0.001
11:52 am 11:52 Cloudy with Haze 32 0 27 -2.8 82 82 NE 13 20 30.15 1021 3 4.828032 0.001 0.001
12:52 pm 12:52 Cloudy with Mist and Fog 32 0 28 -2.2 85 85 N 15 24 30.15 1021 3 4.828032 0.001 0.001
1:52 pm 13:52 Cloudy with Mist and Fog 31 -0.6 27 -2.8 85 85 N 15 24 30.15 1021 5 8.04672 0 0
2:52 pm 14:52 Cloudy with Haze 32 0 27 -2.8 82 82 N 15 24 30.18 1022 6 9.656064 0 0
3:52 pm 15:52 Cloudy 32 0 27 -2.8 82 82 N 15 24 30.18 1022 7 11.265408 0 0
4:52 pm 16:52 Cloudy 32 0 26 -3.3 79 79 N 10 17 30.21 1023 8 12.874752 0 0
5:52 pm 17:52 Cloudy 32 0 26 -3.3 79 79 N 12 19 30.24 1024 8 12.874752 0 0
6:52 pm 18:52 Cloudy 32 0 26 -3.3 79 79 N 8 13 30.24 1024 9 14.484096 0 0
7:52 pm 19:52 Cloudy 31 -0.6 27 -2.8 85 85 N 7 11 30.27 1025 9 14.484096 0 0
8:52 pm 20:52 Cloudy 31 -0.6 27 -2.8 85 85 N 8 13 30.27 1025 8 12.874752 0 0
9:52 pm 21:52 Cloudy 31 -0.6 27 -2.8 85 85 N 8 13 30.27 1025 8 12.874752 0 0
10:52 pm 22:52 Cloudy 30 -1.1 27 -2.8 88 88 NNW 8 13 30.27 1025 8 12.874752 0 0
11:07 pm 23:07 Cloudy 30 -1.1 27 -2.8 88 88 NNW 6 9 30.33 1027 8 12.874752 0 0
11:22 pm 23:22 Cloudy 30 -1.1 27 -2.8 88 88 NNW 8 13 30.33 1027 7 11.265408 0 0
11:52 pm 23:52 Cloudy with Mist and Fog 30 -1.1 26 -3.3 85 85 NNW 9 15 30.27 1025 6 9.656064 0 0

Powered by AerisWeather